ASIASAT 9

Last updated on Tue Sep 22 2026 00:03:14 GMT+0000 (Coordinated Universal Time)

1 42942U 17057A 26264.58457777 -.00000363 00000+0 00000+0 0 9992 2 42942 0.0121 165.7838 0002207 8.0466 159.2029 1.00271856 32845
UTC large
Height (km)
Speed (km/s)
/
Latitude / Longitude
Inclination (degrees)
Orbital Period (minutes)
Azimuth
Elevation
Range (km)
Doppler Factor

Next 0 passes for location: London (51.5072 / 0.1276)

No passes found over London.
ASIASAT 9